Weather History for KSTC - February, 2014

Change the Weather History Date:

Sunday, February 9, 2014

  Actual Average Record
Temperature  
Mean Temperature -3 °F 15 °F  
Max Temperature 5 °F 25 °F 48 °F (1966)
Min Temperature -11 °F 5 °F -35 °F (1899)
Degree Days  
Heating Degree Days 68 50  
Month to date heating degree days 589 460  
Since 1 July heating degree days 6139 5562  
Cooling Degree Days 0 0  
Month to date cooling degree days 0 0  
Year to date cooling degree days 0 0  
Moisture  
Dew Point -11 °F    
Average Humidity 65    
Maximum Humidity 75    
Minimum Humidity 54    
Precipitation  
Precipitation 0.00 in 0.02 in 0.66 in (1965)
Month to date precipitation T 0.15  
Year to date precipitation 1.34 0.80  
Snow  
Snow 0.00 in 0.20 in 9.00 in (1909)
Month to date snowfall 0.1 2.0  
Since 1 July snowfall 40.9 29.2  
Snow Depth 15.00 in    
Sea Level Pressure  
Sea Level Pressure 30.39 in    
Wind  
Wind Speed 10 mph (NW)    
Max Wind Speed 16 mph    
Max Gust Speed 20 mph    
Visibility 10 miles    
Events      
T = Trace of Precipitation, MM = Missing Value Source: NWS Daily Summary

Daily Weather History Graph

Daily Weather History Graph

Search for Another Location

Airport or City:

Trip Planner

Search our weather history database for the weather conditions in past years. The results will help you decide how hot, cold, wet, or windy it might be!

Date:

Astronomy

Feb. 09, 2014 Rise Set
Actual Time 7:26 AM CST 5:34 PM CST
Civil Twilight 6:55 AM CST 6:05 PM CST
Nautical Twilight 6:20 AM CST 6:40 PM CST
Astronomical Twilight 5:46 AM CST 7:15 PM CST
Moon 1:10 PM CST (2/9) 3:37 AM CST (2/9)
Length of Visible Light 11h 09m
Length of Day
10h 07m
Waxing Gibbous, 77% of the Moon is Illuminated
Feb 9
Waxing Gibbous
Feb 14
Full
Feb 22
Last Quarter
Mar 1
New
Mar 8
First Quarter

Hourly Weather History & Observations

Time (CST) Temp. Windchill Dew Point Humidity Pressure Visibility Wind Dir Wind Speed Gust Speed Precip Events Conditions
12:53 AM 1.9 °F -11.8 °F -6.0 °F 69% 30.27 in 10.0 mi NNW 8.1 mph - N/A   Clear
1:53 AM 1.9 °F -13.8 °F -7.1 °F 66% 30.30 in 10.0 mi NNW 10.4 mph - N/A   Mostly Cloudy
2:53 AM 1.0 °F -10.3 °F -8.0 °F 66% 30.30 in 10.0 mi NW 5.8 mph - N/A   Clear
3:53 AM -2.0 °F -16.6 °F -9.0 °F 72% 30.32 in 10.0 mi NW 8.1 mph - N/A   Clear
4:53 AM -5.1 °F -22.5 °F -11.9 °F 72% 30.33 in 10.0 mi NW 10.4 mph - N/A   Clear
5:53 AM -5.1 °F -20.4 °F -11.9 °F 72% 30.34 in 10.0 mi NNW 8.1 mph - N/A   Clear
6:53 AM -6.0 °F -21.5 °F -14.1 °F 68% 30.36 in 10.0 mi NW 8.1 mph - N/A   Clear
7:53 AM -9.0 °F -23.8 °F -16.1 °F 71% 30.38 in 10.0 mi NW 6.9 mph - N/A   Clear
8:53 AM -7.1 °F -25.0 °F -15.0 °F 68% 30.40 in 10.0 mi NW 10.4 mph - N/A   Clear
9:53 AM -2.9 °F -20.8 °F -13.0 °F 62% 30.41 in 10.0 mi NW 11.5 mph - N/A   Clear
10:53 AM -0.0 °F -15.3 °F -11.0 °F 60% 30.42 in 10.0 mi NW 9.2 mph - N/A   Clear
11:53 AM 1.9 °F -12.9 °F -9.9 °F 58% 30.40 in 10.0 mi NNW 9.2 mph - N/A   Clear
12:53 PM 3.9 °F -11.3 °F -9.0 °F 55% 30.39 in 10.0 mi NW 10.4 mph - N/A   Clear
1:53 PM 5.0 °F -12.3 °F -8.0 °F 55% 30.38 in 10.0 mi WNW 13.8 mph - N/A   Clear
2:53 PM 5.0 °F -11.6 °F -8.0 °F 55% 30.37 in 10.0 mi WNW 12.7 mph - N/A   Clear
3:53 PM 5.0 °F -10.8 °F -9.0 °F 52% 30.38 in 10.0 mi NW 11.5 mph - N/A   Clear
4:53 PM 3.0 °F -13.3 °F -9.0 °F 57% 30.40 in 10.0 mi West 11.5 mph - N/A   Clear
5:53 PM 1.0 °F -14.0 °F -9.9 °F 60% 30.42 in 10.0 mi West 9.2 mph - N/A   Clear
6:53 PM -0.9 °F -18.3 °F -11.0 °F 62% 30.44 in 10.0 mi West 11.5 mph - N/A   Clear
7:53 PM -2.9 °F -18.8 °F -11.9 °F 65% 30.45 in 10.0 mi West 9.2 mph - N/A   Clear
8:53 PM -4.0 °F -21.2 °F -13.0 °F 65% 30.46 in 10.0 mi WNW 10.4 mph - N/A   Clear
9:53 PM -7.1 °F -22.8 °F -15.0 °F 68% 30.47 in 10.0 mi NW 8.1 mph - N/A   Clear
10:53 PM -7.1 °F -23.9 °F -16.1 °F 65% 30.48 in 10.0 mi NW 9.2 mph - N/A   Clear
11:53 PM -9.9 °F -27.5 °F -18.0 °F 68% 30.50 in 10.0 mi NW 9.2 mph - N/A   Clear